Weather History for Immokalee Regional Airport [I, FL

Change the Weather History Date:

Friday, March 14, 2014

  Actual Average (KFMY) Record (KFMY)
Temperature  
Mean Temperature 61 °F 70 °F  
Max Temperature 80 °F 80 °F 88 °F (1943)
Min Temperature 42 °F 59 °F 40 °F (1932)
Degree Days  
Heating Degree Days 4 1  
Month to date heating degree days 14  
Since 1 July heating degree days 274  
Cooling Degree Days 0 5  
Month to date cooling degree days 70  
Year to date cooling degree days 255  
Growing Degree Days 11 (Base 50)    
Moisture  
Dew Point 49 °F    
Average Humidity 63    
Maximum Humidity 100    
Minimum Humidity 32    
Precipitation  
Precipitation 0.00 in 0.10 in 0.91 in (1915)
Month to date precipitation 1.31  
Year to date precipitation 5.40  
Sea Level Pressure  
Sea Level Pressure 30.22 in    
Wind  
Wind Speed 5 mph (ENE)    
Max Wind Speed 16 mph    
Max Gust Speed 21 mph    
Visibility 9 miles    
Events      
T = Trace of Precipitation, MM = Missing Value Source: NWS Daily Summary

Daily Weather History Graph

Daily Weather History Graph

Search for Another Location

Airport:

Trip Planner

Search our weather history database for the weather conditions in past years. The results will help you decide how hot, cold, wet, or windy it might be!

Date:

Astronomy

Mar. 14, 2014 Rise Set
Actual Time 7:35 AM EDT 7:33 PM EDT
Civil Twilight 7:12 AM EDT 7:56 PM EDT
Nautical Twilight 6:46 AM EDT 8:23 PM EDT
Astronomical Twilight 6:19 AM EDT 8:50 PM EDT
Moon 6:00 PM EDT (3/14) 6:06 AM EDT (3/14)
Length of Visible Light 12h 44m
Length of Day
11h 57m
Waxing Gibbous, 96% of the Moon is Illuminated
Mar 14
Waxing Gibbous
Mar 16
Full
Mar 23
Last Quarter
Mar 30
New
Apr 7
First Quarter

Hourly Weather History & Observations

Time (EDT) Temp. Windchill Dew Point Humidity Pressure Visibility Wind Dir Wind Speed Gust Speed Precip Events Conditions
12:15 AM 50.0 °F - 46.4 °F 87% 30.20 in 10.0 mi Calm Calm - 0.00 in   Clear
12:35 AM 46.4 °F - 46.4 °F 100% 30.20 in 10.0 mi Calm Calm - 0.00 in   Clear
12:55 AM 44.6 °F - 44.6 °F 100% 30.21 in 10.0 mi Calm Calm - 0.00 in   Clear
1:15 AM 44.6 °F - 44.6 °F 100% 30.22 in 10.0 mi Calm Calm - 0.00 in   Clear
1:35 AM 44.6 °F - 44.6 °F 100% 30.22 in 10.0 mi Calm Calm - 0.00 in   Clear
1:55 AM 44.6 °F - 44.6 °F 100% 30.22 in 10.0 mi Calm Calm - 0.00 in   Clear
2:15 AM 46.4 °F 43.5 °F 46.4 °F 100% 30.22 in 10.0 mi NNE 5.8 mph - 0.00 in   Clear
2:35 AM 46.4 °F 43.5 °F - N/A% 30.21 in 10.0 mi NNE 5.8 mph - 0.00 in   Clear
2:55 AM 44.6 °F 41.4 °F 44.6 °F 100% 30.21 in 10.0 mi NNE 5.8 mph - 0.00 in   Clear
3:15 AM 44.6 °F 40.7 °F - N/A% 30.20 in 10.0 mi NNE 6.9 mph - 0.00 in   Clear
3:35 AM 46.4 °F 42.4 °F - N/A% 30.20 in 10.0 mi NNE 8.1 mph - 0.00 in   Clear
3:55 AM 46.4 °F 42.9 °F 46.4 °F 100% 30.20 in 10.0 mi NNE 6.9 mph - 0.00 in   Clear
4:15 AM 44.6 °F 42.2 °F 44.6 °F 100% 30.20 in 10.0 mi NNE 4.6 mph - 0.00 in   Clear
4:35 AM 44.6 °F - 44.6 °F 100% 30.20 in 10.0 mi Calm Calm - 0.00 in   Clear
4:55 AM 44.6 °F 42.2 °F 44.6 °F 100% 30.20 in 10.0 mi NNE 4.6 mph - 0.00 in   Clear
5:15 AM 44.6 °F - 44.6 °F 100% 30.21 in 10.0 mi Calm Calm - 0.00 in   Clear
5:35 AM 42.8 °F - - N/A% 30.21 in 10.0 mi Calm Calm - 0.00 in   Clear
5:55 AM 42.8 °F - - N/A% 30.21 in 10.0 mi Calm Calm - 0.00 in   Clear
6:15 AM 42.8 °F - - N/A% 30.21 in 10.0 mi Calm Calm - 0.00 in   Clear
6:35 AM 42.8 °F - - N/A% 30.22 in 10.0 mi Calm Calm - 0.00 in   Clear
6:55 AM 42.8 °F - - N/A% 30.22 in 9.0 mi Calm Calm - 0.00 in   Clear
7:15 AM 42.8 °F - - N/A% 30.23 in 6.0 mi Calm Calm - 0.00 in   Clear
7:35 AM 42.8 °F - - N/A% 30.24 in 9.0 mi Calm Calm - 0.00 in   Clear
7:55 AM 42.8 °F 41.1 °F - N/A% 30.24 in 8.0 mi North 3.5 mph - 0.00 in   Clear
8:15 AM 44.6 °F - - N/A% 30.24 in 8.0 mi Calm Calm - 0.00 in   Clear
8:35 AM 51.8 °F - 51.8 °F 100% 30.25 in 7.0 mi North 3.5 mph - 0.00 in   Clear
8:55 AM 55.4 °F - 51.8 °F 88% 30.25 in 9.0 mi North 6.9 mph - 0.00 in   Clear
9:15 AM 57.2 °F - 50.0 °F 77% 30.26 in 8.0 mi North 8.1 mph - 0.00 in   Clear
9:35 AM 62.6 °F - 48.2 °F 59% 30.27 in 9.0 mi NNE 8.1 mph - 0.00 in   Clear
9:55 AM 64.4 °F - 46.4 °F 52% 30.27 in 9.0 mi NE 11.5 mph - 0.00 in   Clear
10:15 AM 66.2 °F - 46.4 °F 49% 30.28 in 10.0 mi NNE 12.7 mph - 0.00 in   Clear
10:35 AM 68.0 °F - 48.2 °F 49% 30.28 in 9.0 mi NE 9.2 mph - 0.00 in   Clear
10:55 AM 69.8 °F - 48.2 °F 46% 30.28 in 9.0 mi ENE 10.4 mph - 0.00 in   Clear
11:15 AM 71.6 °F - 50.0 °F 46% 30.27 in 9.0 mi East 10.4 mph 17.3 mph 0.00 in   Clear
11:35 AM 71.6 °F - 51.8 °F 50% 30.27 in 9.0 mi ENE 13.8 mph 18.4 mph 0.00 in   Clear
11:55 AM 75.2 °F - 51.8 °F 44% 30.27 in 8.0 mi East 15.0 mph 19.6 mph 0.00 in   Partly Cloudy
12:15 PM 75.2 °F - 51.8 °F 44% 30.26 in 8.0 mi ENE 16.1 mph 20.7 mph 0.00 in   Scattered Clouds
12:35 PM 75.2 °F - 48.2 °F 38% 30.25 in 9.0 mi East 15.0 mph 20.7 mph 0.00 in   Partly Cloudy
12:55 PM 75.2 °F - 48.2 °F 38% 30.25 in 9.0 mi ESE 13.8 mph 17.3 mph 0.00 in   Clear
1:15 PM 77.0 °F - 48.2 °F 36% 30.24 in 9.0 mi ENE 9.2 mph 19.6 mph 0.00 in   Clear
1:35 PM 77.0 °F - 48.2 °F 36% 30.23 in 9.0 mi ESE 9.2 mph 19.6 mph 0.00 in   Clear
1:55 PM 77.0 °F - 48.2 °F 36% 30.23 in 8.0 mi East 15.0 mph 19.6 mph 0.00 in   Clear
2:15 PM 78.8 °F - 48.2 °F 34% 30.23 in 9.0 mi East 12.7 mph 16.1 mph 0.00 in   Clear
2:35 PM 78.8 °F - 46.4 °F 32% 30.22 in 9.0 mi East 11.5 mph 17.3 mph 0.00 in   Clear
2:55 PM 78.8 °F - 48.2 °F 34% 30.22 in 8.0 mi East 16.1 mph - 0.00 in   Clear
3:15 PM 80.6 °F - 48.2 °F 32% 30.21 in 9.0 mi East 5.8 mph - 0.00 in   Partly Cloudy
3:35 PM 80.6 °F - 48.2 °F 32% 30.20 in 9.0 mi ENE 11.5 mph - 0.00 in   Clear
3:55 PM 80.6 °F - 48.2 °F 32% 30.19 in 8.0 mi East 11.5 mph - 0.00 in   Clear
4:15 PM 80.6 °F - 48.2 °F 32% 30.19 in 8.0 mi ESE 9.2 mph - 0.00 in   Partly Cloudy
4:35 PM 78.8 °F - 48.2 °F 34% 30.18 in 9.0 mi East 9.2 mph - 0.00 in   Clear
4:55 PM 80.6 °F - 48.2 °F 32% 30.18 in 8.0 mi East 9.2 mph - 0.00 in   Clear
5:15 PM 80.6 °F - 50.0 °F 34% 30.17 in 8.0 mi East 11.5 mph 16.1 mph 0.00 in   Scattered Clouds
5:35 PM 77.0 °F - 50.0 °F 39% 30.17 in 9.0 mi East 9.2 mph - 0.00 in   Partly Cloudy
5:55 PM 75.2 °F - 48.2 °F 38% 30.17 in 8.0 mi East 8.1 mph - 0.00 in   Clear
6:15 PM 77.0 °F - 48.2 °F 36% 30.17 in 9.0 mi ESE 11.5 mph - 0.00 in   Clear
6:35 PM 75.2 °F - 48.2 °F 38% 30.18 in 9.0 mi ESE 8.1 mph - 0.00 in   Clear
6:55 PM 73.4 °F - 48.2 °F 41% 30.17 in 10.0 mi ESE 10.4 mph - 0.00 in   Clear
7:15 PM 71.6 °F - 48.2 °F 43% 30.17 in 9.0 mi ESE 9.2 mph - 0.00 in   Clear
7:35 PM 69.8 °F - 48.2 °F 46% 30.17 in 10.0 mi ESE 8.1 mph - 0.00 in   Clear
7:55 PM 66.2 °F - 50.0 °F 56% 30.18 in 10.0 mi ESE 8.1 mph - 0.00 in   Clear
8:15 PM 66.2 °F - 51.8 °F 60% 30.18 in 10.0 mi East 9.2 mph - 0.00 in   Clear
8:35 PM 64.4 °F - 51.8 °F 64% 30.18 in 10.0 mi East 6.9 mph - 0.00 in   Clear
8:55 PM 64.4 °F - 53.6 °F 68% 30.18 in 10.0 mi East 8.1 mph - 0.00 in   Clear
9:15 PM 64.4 °F - 53.6 °F 68% 30.19 in 10.0 mi East 8.1 mph - 0.00 in   Clear
9:35 PM 62.6 °F - 53.6 °F 72% 30.20 in 10.0 mi East 6.9 mph - 0.00 in   Clear
9:55 PM 60.8 °F - 53.6 °F 77% 30.21 in 10.0 mi East 5.8 mph - 0.00 in   Clear
10:15 PM 59.0 °F - 53.6 °F 82% 30.21 in 10.0 mi Calm Calm - 0.00 in   Clear
10:35 PM 57.2 °F - 53.6 °F 88% 30.22 in 10.0 mi East 5.8 mph - 0.00 in   Clear
10:55 PM 57.2 °F - 55.4 °F 94% 30.22 in 10.0 mi East 4.6 mph - 0.00 in   Clear
11:15 PM 57.2 °F - 55.4 °F 94% 30.22 in 10.0 mi East 6.9 mph - 0.00 in   Clear
11:35 PM 59.0 °F - 55.4 °F 88% 30.21 in 10.0 mi East 6.9 mph - 0.00 in   Clear
11:55 PM 59.0 °F - 53.6 °F 82% 30.20 in 10.0 mi ESE 5.8 mph - 0.00 in   Clear